FW2288 Weather Reports


time (UTC)temp
F
wind
direction
speed
knots
gust
knots
rain 1hr
in
rain 24hr
in
rain mn
in
humidity
%
barometer
mb
20260504110549 43 166 1.7 3.5 0.00 0.00 0.00 67 1013.8
20260504100550 42 203 1.7 3.5 0.00 0.00 0.00 65 1013.6
20260504081608 45 177 3.5 5.2 0.00 0.00 0.00 56 1013.5
20260504081047 45 185 2.6 4.3 0.00 0.00 0.00 55 1013.6
20260504080550 44 205 2.6 4.3 0.00 0.00 0.00 57 1013.7
20260504080111 44 175 2.6 4.3 0.00 0.00 0.00 57 1013.7
20260504050549 46 220 3.5 6.1 0.00 0.00 0.00 51 1014.4
20260504050106 46 199 3.5 6.1 0.00 0.00 0.00 51 1014.4
20260504045546 46 204 3.5 5.2 0.00 0.00 0.00 50 1014.5
20260504045048 46 200 3.5 5.2 0.00 0.00 0.00 50 1014.5
20260504044601 46 193 2.6 6.1 0.00 0.00 0.00 51 1014.5
20260504044047 46 203 3.5 6.1 0.00 0.00 0.00 51 1014.5
20260504043547 46 206 4.3 6.1 0.00 0.00 0.00 50 1014.5
20260504043056 46 179 3.5 6.1 0.00 0.00 0.00 50 1014.4
20260504042547 46 191 3.5 5.2 0.00 0.00 0.00 49 1014.4
20260504042050 46 214 3.5 5.2 0.00 0.00 0.00 49 1014.6
20260504041558 47 201 3.5 5.2 0.00 0.00 0.00 49 1014.4
20260504041049 47 191 2.6 4.3 0.00 0.00 0.00 48 1014.4
20260504040551 47 193 2.6 5.2 0.00 0.00 0.00 47 1014.3
20260504035548 47 219 2.6 5.2 0.00 0.00 0.00 48 1014.4
20260504035049 47 200 2.6 5.2 0.00 0.00 0.00 48 1014.5
20260504034550 47 224 2.6 5.2 0.00 0.00 0.00 48 1014.5
20260504034050 47 210 2.6 4.3 0.00 0.00 0.00 48 1014.5
20260504033548 47 220 1.7 5.2 0.00 0.00 0.00 48 1014.6
20260504033051 47 227 3.5 5.2 0.00 0.00 0.00 46 1014.5
20260504032547 48 243 3.5 5.2 0.00 0.00 0.00 46 1014.5
20260504032047 48 250 1.7 5.2 0.00 0.00 0.00 45 1014.4
20260504031553 48 251 3.5 7.0 0.00 0.00 0.00 45 1014.5
20260504031046 48 228 3.5 7.0 0.00 0.00 0.00 45 1014.3
20260504030548 48 218 2.6 5.2 0.00 0.00 0.00 45 1014.3
20260504030055 48 224 2.6 7.0 0.00 0.00 0.00 44 1014.3
20260504025548 48 214 2.6 7.0 0.00 0.00 0.00 44 1014.4
20260504025049 48 198 3.5 7.0 0.00 0.00 0.00 44 1014.3
20260504024614 48 198 2.6 5.2 0.00 0.00 0.00 44 1014.5
20260504024048 48 203 2.6 5.2 0.00 0.00 0.00 44 1014.5
20260504023546 48 209 2.6 5.2 0.00 0.00 0.00 45 1014.4
20260504023054 48 202 2.6 5.2 0.00 0.00 0.00 45 1014.5
20260504022549 48 207 2.6 5.2 0.00 0.00 0.00 45 1014.5
20260504022048 48 196 0.9 3.5 0.00 0.00 0.00 45 1014.5
20260504021552 48 188 1.7 3.5 0.00 0.00 0.00 44 1014.5
20260504021049 48 220 1.7 3.5 0.00 0.00 0.00 44 1014.6
20260504020548 48 217 1.7 3.5 0.00 0.00 0.00 44 1014.5
20260504020051 49 217 0.9 4.3 0.00 0.00 0.00 43 1014.4
20260504015548 49 179 2.6 4.3 0.00 0.00 0.00 42 1014.1
20260504015047 49 195 2.6 5.2 0.00 0.00 0.00 42 1013.9
20260504014603 49 221 0.9 5.2 0.00 0.00 0.00 42 1014.1
20260504014048 49 210 0.9 3.5 0.00 0.00 0.00 42 1014.2
20260504013548 49 289 1.7 3.5 0.00 0.00 0.00 41 1014.2
20260504013059 49 297 1.7 5.2 0.00 0.00 0.00 41 1014.1
20260504012550 50 297 1.7 5.2 0.00 0.00 0.00 41 1014.0
20260504012050 50 282 2.6 5.2 0.00 0.00 0.00 40 1014.0
20260504011552 50 334 2.6 4.3 0.00 0.00 0.00 39 1014.1
20260504011047 50 295 1.7 4.3 0.00 0.00 0.00 39 1013.8
20260504010547 51 285 2.6 4.3 0.00 0.00 0.00 38 1013.8
20260504010104 51 330 2.6 5.2 0.00 0.00 0.00 38 1013.8
20260504005549 51 248 2.6 5.2 0.00 0.00 0.00 38 1013.9
20260504005049 51 278 2.6 5.2 0.00 0.00 0.00 38 1013.7
20260504004554 51 254 0.9 4.3 0.00 0.00 0.00 38 1013.8
20260504004050 51 265 1.7 4.3 0.00 0.00 0.00 38 1013.6
20260504003551 51 293 1.7 5.2 0.00 0.00 0.00 37 1013.6
20260504003057 51 281 1.7 6.1 0.00 0.00 0.00 37 1013.5
20260504002547 52 264 1.7 6.1 0.00 0.00 0.00 37 1013.3
20260504002048 52 272 1.7 6.1 0.00 0.00 0.00 37 1013.4
20260504001554 52 259 2.6 6.1 0.00 0.00 0.00 37 1013.2
20260504001049 52 286 1.7 3.5 0.00 0.00 0.00 38 1013.5
20260504000549 52 313 1.7 5.2 0.00 0.00 0.00 38 1013.6
20260504000138 52 328 1.7 5.2 0.00 0.00 0.00 38 1013.6
20260503235548 53 257 1.7 5.2 0.00 0.00 0.00 37 1013.7
20260503235049 53 327 1.7 7.0 0.00 0.00 0.00 37 1013.6
20260503234558 53 330 2.6 7.8 0.00 0.00 0.00 36 1013.5
20260503234052 54 330 3.5 7.8 0.00 0.00 0.00 36 1013.6
20260503233550 54 329 3.5 7.8 0.00 0.00 0.00 35 1013.6
20260503233053 55 314 4.3 7.0 0.00 0.00 0.00 34 1013.6
20260503232548 55 326 3.5 7.0 0.00 0.00 0.00 34 1013.5
20260503232049 56 304 3.5 7.8 0.00 0.00 0.00 34 1013.6
20260503231555 56 310 4.3 9.6 0.00 0.00 0.00 33 1013.5
20260503231049 56 331 3.5 9.6 0.00 0.00 0.00 33 1013.5
20260503230549 56 321 5.2 10.4 0.00 0.00 0.00 32 1013.4
20260503230051 56 309 4.3 10.4 0.00 0.00 0.00 31 1013.5
20260503225548 56 319 2.6 9.6 0.00 0.00 0.00 32 1013.5
20260503225048 57 342 5.2 10.4 0.00 0.00 0.00 31 1013.6
20260503224554 57 249 6.1 10.4 0.00 0.00 0.00 31 1013.6
20260503224049 57 339 4.3 10.4 0.00 0.00 0.00 32 1013.6
20260503223548 57 330 4.3 10.4 0.00 0.00 0.00 30 1013.7
20260503223053 57 307 5.2 10.4 0.00 0.00 0.00 30 1013.6
20260503222548 57 326 6.1 10.4 0.00 0.00 0.00 30 1013.7
20260503222048 57 305 3.5 9.6 0.00 0.00 0.00 31 1013.6
20260503221557 58 298 4.3 9.6 0.00 0.00 0.00 32 1013.6
20260503221048 58 338 4.3 8.7 0.00 0.00 0.00 32 1013.7
20260503220548 58 333 5.2 11.3 0.00 0.00 0.00 31 1013.7
20260503220055 58 305 3.5 11.3 0.00 0.00 0.00 31 1013.8
20260503215548 58 330 3.5 11.3 0.00 0.00 0.00 32 1013.8
20260503215047 58 349 7.0 11.3 0.00 0.00 0.00 30 1013.8
20260503214554 58 275 2.6 9.6 0.00 0.00 0.00 29 1013.8
20260503214048 58 244 4.3 8.7 0.00 0.00 0.00 31 1013.9
20260503213547 57 340 3.5 13.0 0.00 0.00 0.00 32 1013.8
20260503213057 57 286 3.5 13.0 0.00 0.00 0.00 31 1013.9
20260503212548 57 219 6.1 13.0 0.00 0.00 0.00 31 1014.0
20260503212048 57 229 5.2 12.2 0.00 0.00 0.00 32 1014.0
20260503211611 58 246 4.3 9.6 0.00 0.00 0.00 31 1013.9
20260503211048 57 335 3.5 10.4 0.00 0.00 0.00 30 1013.9
20260503210549 57 230 4.3 10.4 0.00 0.00 0.00 30 1013.8
20260503210053 58 299 5.2 10.4 0.00 0.00 0.00 30 1013.9
20260503205549 58 341 3.5 7.8 0.00 0.00 0.00 34 1013.8
20260503205047 58 312 3.5 7.8 0.00 0.00 0.00 34 1013.8
20260503204557 58 315 3.5 10.4 0.00 0.00 0.00 32 1013.8
20260503204048 58 259 7.0 10.4 0.00 0.00 0.00 35 1013.9
20260503203546 57 336 2.6 7.8 0.00 0.00 0.00 32 1014.0
20260503203107 57 222 4.3 11.3 0.00 0.00 0.00 33 1014.1
20260503202548 57 235 4.3 11.3 0.00 0.00 0.00 31 1014.2
20260503202050 58 287 7.0 16.5 0.00 0.00 0.00 31 1014.2
20260503201555 57 297 8.7 20.9 0.00 0.00 0.00 33 1014.1
20260503201047 57 329 10.4 20.9 0.00 0.00 0.00 31 1014.2
20260503200551 57 343 7.8 13.9 0.00 0.00 0.00 34 1014.3
20260503200058 57 310 7.0 13.0 0.00 0.00 0.00 34 1014.4
20260503195547 57 321 7.0 13.0 0.00 0.00 0.00 29 1014.3
20260503195047 57 343 5.2 11.3 0.00 0.00 0.00 30 1014.5
20260503194555 57 338 5.2 13.9 0.00 0.00 0.00 33 1014.4
20260503194050 57 317 6.1 13.9 0.00 0.00 0.00 31 1014.6
20260503193547 57 334 9.6 14.8 0.00 0.00 0.00 31 1014.6
20260503193057 57 330 7.0 14.8 0.00 0.00 0.00 34 1014.8
20260503192548 56 342 9.6 14.8 0.00 0.00 0.00 33 1014.6
20260503192047 56 356 9.6 13.9 0.00 0.00 0.00 30 1014.9
20260503191552 55 314 5.2 11.3 0.00 0.00 0.00 32 1014.9
20260503191050 55 317 7.0 11.3 0.00 0.00 0.00 34 1014.9
20260503190548 56 319 6.1 14.8 0.00 0.00 0.00 30 1014.9
20260503190053 55 326 4.3 14.8 0.00 0.00 0.00 33 1014.9
20260503185547 55 320 9.6 14.8 0.00 0.00 0.00 35 1015.0
20260503185045 55 343 2.6 9.6 0.00 0.00 0.00 31 1015.1
20260503184552 55 300 5.2 9.6 0.00 0.00 0.00 32 1015.1
20260503184050 55 275 4.3 11.3 0.00 0.00 0.00 33 1015.1
20260503183546 54 340 3.5 11.3 0.00 0.00 0.00 33 1015.2
20260503183051 54 354 6.1 12.2 0.00 0.00 0.00 32 1015.2
20260503182547 54 302 3.5 12.2 0.00 0.00 0.00 32 1015.3
20260503182047 54 287 5.2 12.2 0.00 0.00 0.00 34 1015.4
20260503181601 54 345 6.1 12.2 0.00 0.00 0.00 30 1015.5
20260503181049 53 276 5.2 12.2 0.00 0.00 0.00 34 1015.6
20260503180547 52 197 2.6 12.2 0.00 0.00 0.00 32 1015.5
20260503180054 53 308 5.2 12.2 0.00 0.00 0.00 34 1015.6
20260503175548 52 335 5.2 12.2 0.00 0.00 0.00 36 1015.7
20260503175048 51 293 6.1 12.2 0.00 0.00 0.00 33 1015.7
20260503174554 51 309 5.2 12.2 0.00 0.00 0.00 35 1015.7
20260503174048 53 350 6.1 12.2 0.00 0.00 0.00 31 1015.7
20260503173548 53 338 5.2 12.2 0.00 0.00 0.00 32 1015.8
20260503173059 52 324 6.1 12.2 0.00 0.00 0.00 35 1015.9
20260503172547 52 328 2.6 11.3 0.00 0.00 0.00 35 1015.9
20260503172048 52 317 5.2 11.3 0.00 0.00 0.00 35 1016.0
20260503171554 52 347 3.5 7.8 0.00 0.00 0.00 37 1015.9
20260503171048 51 318 1.7 11.3 0.00 0.00 0.00 36 1016.1
20260503170549 51 325 4.3 11.3 0.00 0.00 0.00 36 1016.3
20260503150548 46 354 7.8 15.6 0.00 0.00 0.00 43 1016.7
20260503131051 41 349 12.2 18.2 0.00 0.00 0.00 54 1016.2
20260503130548 40 354 9.6 14.8 0.00 0.00 0.00 55 1016.2